Kuantan Airport
WMKD : now visible

Airfield :











YOU CAN JOIN US ON...

 
LOGIN :

Register | Disclaimer

   EN    FR    IT 

 









Legend :    VFR   Marginal VFR   IFR   Intensive IFR   Very Intensive IFR
Visi :
Ceiling :
>= 8 km
>= 3000ft
5 to 8 km
1000 to 3000 ft
1500m to 5 km
500 to 1000 ft
800 to 1500m
200 to 500 ft
< 800m
< 200 ft
Symbols :   Thunderstorms  Fog  Heavy snow  Heavy precipitations  Wind > 20 kt






- Airport Elevation : 58 ft
- IATA code : KUA


WMKD - Kuantan

CURRENT METAR :
  • 170200Z 22005KT 140V300 9999 FEW020 28/24 Q1011 NOSIG

EXPIRED METARs :
  • 170100Z 23006KT 180V260 9999 FEW010 26/24 Q1010 NOSIG
  • 170000Z VRB03KT 0100 FG SCT000 24/23 Q1010 NOSIG
  • 162300Z VRB02KT 0800 FG SCT000 24/23 Q1009 NOSIG
  • 162200Z 00000KT 0800 FG SCT000 24/23 Q1009 NOSIG

TAF N/A
WMFC FIR / Asia



MET'MAP, your aeronautical weather chart ! - Copyright ORBIFLY December 2007 - Disclaimer

ORBIFLY MET'MAP TEAM :

Programming & Development : Alexandra Zaïnal
Original concept : Baudouin d'Aumeries
Technical & hardware support : Manuel Goepfert
Assistance : Marc-Olivier Méhu




SOURCES & CREDITS :

   NOAA       Earth
Advisory